Lexington Weather

Lexington, Massachusetts, USA

74°F
8/7/2020 11:43am 
  • Lexington Conditions: Clear
  • Temperature: 73.6°F / 23.1°CWarmer 2.5°F than last hour.
  • Dew Point: 63.7°FIncreased 0.2°Fsince last hour.
  • Relative Humidity: 71%Decreased 6.0% since last hour.
  • Wind: Calm, 10-min avg: Calm, gust: 2 mph
  • Barometer: 30.13 inFalling 0.02  inHg/hr Falling Slowly
  • Visibility: 10 miles
  • Rain Today: 0.00 in
  •   

Regional Weather Roundup
for Boston / Norton, MA

        
000
ASUS41 KBOX 010504
RWRBOX

REGIONAL WEATHER ROUNDUP
NATIONAL WEATHER SERVICE BOSTON/NORTON MA
100 AM EDT SAT AUG 01 2020

NOTE:  "FAIR" INDICATES FEW OR NO CLOUDS BELOW 12,000 FEET WITH NO 
SIGNIFICANT WEATHER AND/OR OBSTRUCTIONS TO VISIBILITY.

MAZALL-010600-
EASTERN MASSACHUSETTS
  
CITY           SKY/WX    TMP DP  RH WIND       PRES   REMARKS
BOSTON         PTCLDY    71  64  78 CALM      29.86S                  
BEVERLY        CLEAR     67  65  93 CALM      29.85F                  
LAWRENCE       CLEAR     68  65  90 CALM      29.88S                  
BEDFORD        CLEAR     65  62  90 SW3       29.85F                  
BLUE HILL      NOT AVBL                                               
NORWOOD        CLEAR     66  62  87 CALM      29.86S                  
MARSHFIELD     CLEAR     66  66 100 CALM      29.85S                  
PLYMOUTH       CLEAR     65  63  93 CALM      29.86S                  
TAUNTON        PTCLDY    62  60  93 CALM      29.85S FOG              
NEW BEDFORD    CLEAR     64  64 100 CALM      29.85S FOG              
$$

MAZALL-010600-
CAPE COD AND THE ISLANDS
  
CITY           SKY/WX    TMP DP  RH WIND       PRES   REMARKS
FALMOUTH       CLOUDY    66  66 100 CALM      29.82S FOG              
HYANNIS        CLEAR     64  63  96 CALM      29.83F                  
CHATHAM        CLEAR     68  66  93 NW3       29.85F                  
PROVINCETOWN   CLEAR     62  59  90 CALM      29.86S                  
NANTUCKET      CLEAR     66  64  93 CALM      29.84S FOG              
MARTHAS VNYRD  FOG       63  63 100 NW3       29.84F VSB 3/4          
$$
 
MAZALL-010600-
CENTRAL AND WESTERN MASSACHUSETTS
  
CITY           SKY/WX    TMP DP  RH WIND       PRES   REMARKS
WORCESTER      CLEAR     71  65  81 CALM      29.90S                  
FITCHBURG      CLEAR     67  62  84 N3        29.88S                  
ORANGE         CLEAR     65  62  90 CALM      29.90S                  
SPRINGFIELD    CLEAR     65  62  90 CALM      29.86S                  
WESTFIELD      CLEAR     65  62  90 CALM      29.87R                  
NORTH ADAMS    CLEAR     61  58  90 CALM      29.92R                  
PITTSFIELD     CLEAR     62  59  90 CALM      29.91S                  
$$
 
RIZALL-010600-
RHODE ISLAND
  
CITY           SKY/WX    TMP DP  RH WIND       PRES   REMARKS
PROVIDENCE     CLEAR     71  68  90 W3        29.86S                  
NEWPORT        CLEAR     68  65  90 CALM      29.85F                  
BLOCK ISLAND   CLEAR     67  65  93 CALM      29.86F                  
SMITHFIELD     CLEAR     65  65 100 CALM      29.88S                  
WESTERLY       CLEAR     67  64  90 CALM      29.86F                  
$$
 
CTZALL-010600-
CONNECTICUT
  
CITY           SKY/WX    TMP DP  RH WIND       PRES   REMARKS
BRADLEY INTL   PTCLDY    68  59  73 NW3       29.86R                  
HARTFORD       CLEAR     73  69  87 S5        29.85S                  
BRIDGEPORT     CLEAR     73  67  81 CALM      29.86R                  
DANBURY        CLEAR     66  64  93 SW5       29.89S                  
GROTON         CLEAR     68  67  96 CALM      29.85S                  
NEW HAVEN      CLEAR     71  69  93 CALM      29.86S FOG              
CHESTER        FAIR      68  68 100 CALM      29.87F                  
MERIDEN        CLEAR     69  66  90 CALM      29.86S                  
WILLIMANTIC    CLEAR     70  67  90 CALM      29.87S                  
OXFORD         CLEAR     66  65  96 CALM      29.90R                  
$$

MEZ002-015-021-024-NHZ003-005-008-011-012-014-VTZ005-008-010600-
NORTHERN NEW ENGLAND
  
CITY           SKY/WX    TMP DP  RH WIND       PRES   REMARKS
PORTLAND ME    MOCLDY    70  63  78 W5        29.86S                  
BANGOR ME      CLEAR     66  59  78 CALM      29.84F                  
CONCORD NH     CLEAR     65  60  84 CALM      29.88S                  
MANCHESTER NH  CLEAR     72  63  73 NE5       29.86S                  
NASHUA NH      CLEAR     68  66  93 W5        29.88R                  
PORTSMOUTH NH  MOCLDY    69  63  81 CALM      29.84F                  
JAFFREY NH     CLEAR     62  59  90 CALM      29.92R                  
KEENE NH       CLEAR     62  62 100 CALM      29.90S                  
BURLINGTON VT  CLEAR     66  60  81 E3        29.90S                  
MT. WASHINGTON NOT AVBL                                               
$$

NYZ052-076-010600-
EASTERN NEW YORK
  
CITY           SKY/WX    TMP DP  RH WIND       PRES   REMARKS
ALBANY         PTCLDY    69  61  75 CALM      29.89S                  
NEW YORK CITY  PTCLDY    78  67  68 CALM      29.85S                  
$$
 
ANZALL-010600-
MARINE OBSERVATIONS
  
STATION/POSITION TIME  TEMP    WIND        PRES    VSBY  WAVE
                       AIR SEA DIR/SP/G                  HT/PER
                 (UTC) (F)     (DEG/KT/KT) (MB)    (MI)  (FT/S)
BOSTON BUOY      0450   72 73  270/  6/  6 1009.5S         1/10
BUZZARDS BAY     0400          310/  2/  2 1012.0R
NANTUCKET SOUND  0440      77  320/  6/  8 1009.8R
MASS BAY-STELLWA 0404   71     290/  6/  6 1008.7R  1 7/8  1/ 8
ISLE OF SHOALS   0400   71     260/  6/  7 1010.5S
S OF BLOCK IS    0426      76                N/A           3/ 8
$$

......................KEY.........................
  SKY/WX - SKY CONDITION/PRESENT WEATHER
  TMP    - TEMPERATURE IN FAHRENHEIT
  DWPT   - DEWPOINT IN FAHRENHEIT
  RH     - RELATIVE HUMIDITY IN PERCENT
  WIND   - DIRECTION AND SPEED IN MPH
  PRES   - MEAN SEA LEVEL PRESSURE IN INCHES OF HG
  WCI    - WIND CHILL INDEX
  VSB    - VISIBILITY IN MILES
  HX     - HEAT INDEX
  TC     - TEMPERATURE IN CELSIUS
  VRB    - VARIABLE WIND DIRECTION
  N/A    - NOT AVAILABLE
  
      

Other recent Regional Weather Roundups

Fri Aug 7, 11:04am

Fri Aug 7, 10:04am

Fri Aug 7, 9:04am

Fri Aug 7, 8:04am

Fri Aug 7, 7:04am

Fri Aug 7, 6:04am

Fri Aug 7, 5:04am

Fri Aug 7, 4:04am

Fri Aug 7, 3:04am

Fri Aug 7, 2:04am

Fri Aug 7, 1:05am

Fri Aug 7, 12:04am

Thu Aug 6, 11:04pm

Thu Aug 6, 10:04pm

Thu Aug 6, 9:04pm

Thu Aug 6, 8:04pm

Thu Aug 6, 7:04pm

Thu Aug 6, 6:04pm

Thu Aug 6, 5:04pm

Thu Aug 6, 4:05pm

Thu Aug 6, 3:04pm

Thu Aug 6, 2:05pm

Thu Aug 6, 1:04pm

Thu Aug 6, 12:04pm

Thu Aug 6, 11:04am

Thu Aug 6, 10:04am

Thu Aug 6, 9:04am

Thu Aug 6, 8:04am

Thu Aug 6, 7:04am

Thu Aug 6, 6:04am

Thu Aug 6, 5:04am

Thu Aug 6, 4:04am

Thu Aug 6, 3:04am

Thu Aug 6, 2:05am

Thu Aug 6, 1:04am

Thu Aug 6, 12:04am

Wed Aug 5, 11:04pm

Wed Aug 5, 10:04pm

Wed Aug 5, 9:04pm

Wed Aug 5, 8:05pm

Wed Aug 5, 7:04pm

Wed Aug 5, 6:04pm

Wed Aug 5, 5:04pm

Wed Aug 5, 4:05pm

Wed Aug 5, 3:04pm

Wed Aug 5, 2:04pm

Wed Aug 5, 1:04pm

Wed Aug 5, 12:04pm

Wed Aug 5, 11:04am

Wed Aug 5, 10:04am

Wed Aug 5, 9:04am

Wed Aug 5, 8:04am

Wed Aug 5, 7:04am

Wed Aug 5, 6:04am

Wed Aug 5, 5:04am

Wed Aug 5, 4:04am

Wed Aug 5, 3:04am

Wed Aug 5, 2:05am

Wed Aug 5, 1:04am

Wed Aug 5, 12:05am

Tue Aug 4, 11:05pm

Tue Aug 4, 10:05pm

Tue Aug 4, 9:04pm

Tue Aug 4, 8:04pm

Tue Aug 4, 7:05pm

Tue Aug 4, 6:05pm

Tue Aug 4, 5:05pm

Tue Aug 4, 4:05pm

Tue Aug 4, 3:04pm

Tue Aug 4, 2:05pm

Tue Aug 4, 1:04pm

Tue Aug 4, 12:05pm

Tue Aug 4, 11:04am

Tue Aug 4, 10:04am

Tue Aug 4, 9:04am

Tue Aug 4, 8:04am

Tue Aug 4, 7:04am

Tue Aug 4, 6:04am

Tue Aug 4, 5:04am

Tue Aug 4, 4:04am

Tue Aug 4, 3:04am

Tue Aug 4, 2:04am

Tue Aug 4, 1:04am

Tue Aug 4, 12:04am

Mon Aug 3, 11:04pm

Mon Aug 3, 10:04pm

Mon Aug 3, 9:04pm

Mon Aug 3, 8:05pm

Mon Aug 3, 7:04pm

Mon Aug 3, 6:04pm

Mon Aug 3, 5:04pm

Mon Aug 3, 4:05pm

Mon Aug 3, 3:04pm

Mon Aug 3, 2:04pm

Mon Aug 3, 1:04pm

Mon Aug 3, 12:05pm

Mon Aug 3, 11:04am

Mon Aug 3, 10:04am

Mon Aug 3, 9:05am

Mon Aug 3, 8:04am

Mon Aug 3, 7:04am

Mon Aug 3, 6:04am

Mon Aug 3, 5:04am

Mon Aug 3, 4:04am

Mon Aug 3, 3:04am

Mon Aug 3, 2:04am

Mon Aug 3, 1:04am

Mon Aug 3, 12:05am

Sun Aug 2, 11:04pm

Sun Aug 2, 10:04pm

Sun Aug 2, 9:04pm

Sun Aug 2, 8:04pm

Sun Aug 2, 7:04pm

Sun Aug 2, 6:04pm

Sun Aug 2, 5:04pm

Sun Aug 2, 4:05pm

Sun Aug 2, 3:04pm

Sun Aug 2, 2:05pm

Sun Aug 2, 1:04pm

Sun Aug 2, 12:04pm

Sun Aug 2, 11:04am

Sun Aug 2, 10:04am

Sun Aug 2, 9:05am

Sun Aug 2, 8:05am

Sun Aug 2, 7:04am

Sun Aug 2, 6:04am

Sun Aug 2, 5:04am

Sun Aug 2, 4:05am

Sun Aug 2, 3:04am

Sun Aug 2, 2:04am

Sun Aug 2, 1:04am

Sun Aug 2, 12:05am

Sat Aug 1, 11:04pm

Sat Aug 1, 10:04pm

Sat Aug 1, 9:04pm

Sat Aug 1, 8:05pm

Sat Aug 1, 7:04pm

Sat Aug 1, 6:04pm

Sat Aug 1, 5:05pm

Sat Aug 1, 4:05pm

Sat Aug 1, 3:04pm

Sat Aug 1, 2:04pm

Sat Aug 1, 1:04pm

Sat Aug 1, 12:04pm

Sat Aug 1, 11:05am

Sat Aug 1, 10:05am

Sat Aug 1, 9:04am

Sat Aug 1, 8:04am

Sat Aug 1, 7:04am

Sat Aug 1, 6:04am

Sat Aug 1, 5:04am

Sat Aug 1, 4:05am

Sat Aug 1, 3:04am

Sat Aug 1, 2:04am

Sat Aug 1, 12:05am

Fri Jul 31, 11:05pm

Fri Jul 31, 10:04pm

Fri Jul 31, 9:04pm

Fri Jul 31, 8:05pm

Fri Jul 31, 7:05pm

Fri Jul 31, 6:04pm

Fri Jul 31, 5:04pm

Fri Jul 31, 4:05pm

Fri Jul 31, 3:04pm

Fri Jul 31, 2:05pm

Fri Jul 31, 1:04pm

Fri Jul 31, 12:04pm

Meta data:

ID: d2cafc60-c223-45c8-8991-30014e015af8
Link: https://api.weather.gov/products/d2cafc60-c223-45c8-8991-30014e015af8